Regional Weather Roundup
Issued by NWS Spokane, WA

Current Version | Previous Version | Text Only | Print | Product List | Glossary On
Versions: 1 2 3 4 5 6 7 8 9 10 11 12 13 14 15 16 17 18 19 20 21 22 23 24 25 26 27 28 29 30 31 32 33 34 35 36 37 38 39 40 41 42 43 44 45 46 47 48 49 50
000
NZUS01 KOTX 302210
RWROTX
EASTERN WASHINGTON/NORTHERN IDAHO ROUNDUP
NATIONAL WEATHER SERVICE, SPOKANE WA
300 PM PDT TUE SEP 30 2014

Note: "fair" indicated few or no clouds below 12,000 feet with no
significant weather and/or obstructions to visibility.

...NORTHEAST WASHINGTON AND NORTHERN IDAHO PANHANDLE...

CITY           SKY/WX    TMP DP  RH WIND       PRES   REMARKS
SPOKANE INTL   PTSUNNY   66  30  26 W18G24    29.88F
SPOKANE DOWNTO CLOUDY    68  30  24 W13G25    29.87F
COEUR D ALENE  CLOUDY    61  43  51 S13G18    29.88F
DEER PARK      LGT RAIN  53  47  79 E3        29.89R
SANDPOINT      LGT RAIN  54  48  82 W3        29.87S

...SOUTHEAST WASHINGTON AND SOUTHERN IDAHO PANHANDLE...

CITY           SKY/WX    TMP DP  RH WIND       PRES   REMARKS
WALLA WALLA    MOSUNNY   68  37  32 MISG      29.98F
PULLMAN/MOSCOW PTSUNNY   62  39  42 SW22      29.97F
LEWISTON       LGT RAIN  63  38  39 W13G22    29.95F
LOWELL           N/A     56  52  86 CALM      29.98F

...COLUMBIA BASIN...

CITY           SKY/WX    TMP DP  RH WIND       PRES   REMARKS
EPHRATA        SUNNY     71  32  23 W20       29.91F
MOSES LAKE     MOSUNNY   73  33  23 W17G25    29.92F
HERMISTON      MOSUNNY   73  40  30 SW14G21   29.98F
PENDLETON      PTSUNNY   67  35  30 NW9       29.99F

...EAST SLOPES CASCADES...

CITY           SKY/WX    TMP DP  RH WIND       PRES   REMARKS
THE DALLES     SUNNY     70  41  34 W29G40    30.03F
YAKIMA         MOSUNNY   72  37  28 NW15G22   29.99S
WENATCHEE      SUNNY     70  33  25 NW22      29.94F
OMAK           MOSUNNY   68  35  29 N12       29.89S

...SOUTHERN BRITISH COLUMBIA...

CITY           SKY/WX    TMP DP  RH WIND       PRES   REMARKS
PENTICTON      PTSUNNY   57  43  58 N3        29.99F
CRANBROOK      PTSUNNY   61  43  51 N10       29.79R

...WESTERN MONTANA...

CITY           SKY/WX    TMP DP  RH WIND       PRES   REMARKS
MISSOULA       CLOUDY    54  38  54 NW14      29.92R

...NEIGHBORING CITIES...

CITY           SKY/WX    TMP DP  RH WIND       PRES   REMARKS
SEATTLE        PTSUNNY   64  49  57 SW3       30.10F
CALGARY        PTSUNNY   52  36  54 NW15      29.79R



USA.gov is the U.S. government's official web portal to all federal, state and local government web resources and services.